Time,TemperatureF,DewpointF,PressureIn,WindDirection,WindDirectionDegrees,WindSpeedMPH,WindSpeedGustMPH,Humidity,HourlyPrecipIn,Conditions,Clouds,dailyrainin,SoftwareType,DateUTC
2013-03-13 00:03:00,61.0,-99.9,30.06,NNW,343,17.0,22.0,-999,-99.99,,,-99.99,,2013-03-13 04:03:00,
2013-03-13 00:13:00,61.0,-99.9,30.06,NNW,346,19.0,22.0,-999,-99.99,,,-99.99,,2013-03-13 04:13:00,
2013-03-13 00:23:00,61.0,-99.9,30.06,North,349,17.0,21.0,-999,-99.99,,,-99.99,,2013-03-13 04:23:00,
2013-03-13 00:33:00,61.0,-99.9,30.06,NNW,340,20.0,22.0,-999,-99.99,,,-99.99,,2013-03-13 04:33:00,
2013-03-13 00:43:00,61.0,-99.9,30.06,NNW,344,19.0,22.0,-999,-99.99,,,-99.99,,2013-03-13 04:43:00,
2013-03-13 00:53:00,61.0,-99.9,30.06,NNW,343,21.0,23.0,-999,-99.99,,,-99.99,,2013-03-13 04:53:00,
2013-03-13 01:03:00,61.0,-99.9,30.06,NNW,348,19.0,23.0,-999,-99.99,,,-99.99,,2013-03-13 05:03:00,
2013-03-13 01:13:00,61.0,-99.9,30.06,North,351,17.0,22.0,-999,-99.99,,,-99.99,,2013-03-13 05:13:00,
2013-03-13 01:22:00,61.0,-99.9,30.06,NNW,347,21.0,23.0,-999,-99.99,,,-99.99,,2013-03-13 05:22:00,
2013-03-13 01:33:00,61.0,-99.9,30.06,North,352,20.0,24.0,-999,-99.99,,,-99.99,,2013-03-13 05:33:00,
2013-03-13 01:43:00,61.0,-99.9,30.06,North,354,21.0,24.0,-999,-99.99,,,-99.99,,2013-03-13 05:43:00,
2013-03-13 01:53:00,61.0,-99.9,30.06,North,354,21.0,24.0,-999,-99.99,,,-99.99,,2013-03-13 05:53:00,
2013-03-13 02:02:00,61.0,-99.9,30.06,North,355,22.0,25.0,-999,-99.99,,,-99.99,,2013-03-13 06:02:00,
2013-03-13 02:13:00,62.0,-99.9,30.06,North,356,22.0,25.0,-999,-99.99,,,-99.99,,2013-03-13 06:13:00,
2013-03-13 02:23:00,62.0,-99.9,30.06,North,357,25.0,27.0,-999,-99.99,,,-99.99,,2013-03-13 06:23:00,
2013-03-13 02:33:00,62.0,-99.9,30.06,North,358,24.0,28.0,-999,-99.99,,,-99.99,,2013-03-13 06:33:00,
2013-03-13 02:43:00,62.0,-99.9,30.06,North,358,24.0,27.0,-999,-99.99,,,-99.99,,2013-03-13 06:43:00,
2013-03-13 02:53:00,62.0,-99.9,30.06,North,357,22.0,27.0,-999,-99.99,,,-99.99,,2013-03-13 06:53:00,
2013-03-13 03:03:00,62.0,-99.9,30.06,North,359,24.0,27.0,-999,-99.99,,,-99.99,,2013-03-13 07:03:00,
2013-03-13 03:12:00,62.0,-99.9,30.06,North,4,23.0,27.0,-999,-99.99,,,-99.99,,2013-03-13 07:12:00,
2013-03-13 03:23:00,62.0,-99.9,30.06,North,2,21.0,24.0,-999,-99.99,,,-99.99,,2013-03-13 07:23:00,
2013-03-13 03:33:00,62.0,-99.9,30.06,North,2,24.0,26.0,-999,-99.99,,,-99.99,,2013-03-13 07:33:00,
2013-03-13 03:43:00,62.0,-99.9,30.06,North,357,24.0,27.0,-999,-99.99,,,-99.99,,2013-03-13 07:43:00,
2013-03-13 03:53:00,62.0,-99.9,30.06,North,1,22.0,28.0,-999,-99.99,,,-99.99,,2013-03-13 07:53:00,
2013-03-13 04:03:00,62.0,-99.9,30.06,North,359,26.0,28.0,-999,-99.99,,,-99.99,,2013-03-13 08:03:00,
2013-03-13 04:12:00,62.0,-99.9,30.06,North,-999,25.0,28.0,-999,-99.99,,,-99.99,,2013-03-13 08:12:00,
2013-03-13 04:23:00,62.0,-99.9,30.06,North,6,22.0,29.0,-999,-99.99,,,-99.99,,2013-03-13 08:23:00,
2013-03-13 04:33:00,62.0,-99.9,30.06,North,1,24.0,28.0,-999,-99.99,,,-99.99,,2013-03-13 08:33:00,
2013-03-13 04:43:00,62.0,-99.9,30.06,North,360,25.0,28.0,-999,-99.99,,,-99.99,,2013-03-13 08:43:00,
2013-03-13 04:54:00,62.0,-99.9,30.06,North,-999,26.0,29.0,-999,-99.99,,,-99.99,,2013-03-13 08:54:00,
2013-03-13 05:02:00,62.0,-99.9,30.06,North,3,23.0,29.0,-999,-99.99,,,-99.99,,2013-03-13 09:02:00,
2013-03-13 05:13:00,62.0,-99.9,30.06,North,357,26.0,30.0,-999,-99.99,,,-99.99,,2013-03-13 09:13:00,
2013-03-13 05:23:00,61.0,-99.9,30.06,North,356,24.0,30.0,-999,-99.99,,,-99.99,,2013-03-13 09:23:00,
2013-03-13 05:32:00,61.0,-99.9,30.07,North,2,25.0,29.0,-999,-99.99,,,-99.99,,2013-03-13 09:32:00,
2013-03-13 05:42:00,61.0,-99.9,30.07,North,9,25.0,27.0,-999,-99.99,,,-99.99,,2013-03-13 09:42:00,
2013-03-13 05:52:00,61.0,-99.9,30.07,North,358,23.0,26.0,-999,-99.99,,,-99.99,,2013-03-13 09:52:00,
2013-03-13 06:02:00,61.0,-99.9,30.08,North,359,23.0,28.0,-999,-99.99,,,-99.99,,2013-03-13 10:02:00,
2013-03-13 06:12:00,61.0,-99.9,30.08,North,1,22.0,27.0,-999,-99.99,,,-99.99,,2013-03-13 10:12:00,
2013-03-13 06:22:00,61.0,-99.9,30.09,North,9,21.0,27.0,-999,-99.99,,,-99.99,,2013-03-13 10:22:00,
2013-03-13 06:32:00,61.0,-99.9,30.09,NNE,15,25.0,30.0,-999,-99.99,,,-99.99,,2013-03-13 10:32:00,
2013-03-13 06:42:00,61.0,-99.9,30.09,North,4,25.0,28.0,-999,-99.99,,,-99.99,,2013-03-13 10:42:00,
2013-03-13 06:52:00,61.0,-99.9,30.10,North,5,25.0,28.0,-999,-99.99,,,-99.99,,2013-03-13 10:52:00,
2013-03-13 07:02:00,61.0,-99.9,30.10,NNE,12,23.0,27.0,-999,-99.99,,,-99.99,,2013-03-13 11:02:00,
2013-03-13 07:13:00,61.0,-99.9,30.10,North,11,24.0,28.0,-999,-99.99,,,-99.99,,2013-03-13 11:13:00,
2013-03-13 07:23:00,60.0,-99.9,30.11,North,10,23.0,27.0,-999,-99.99,,,-99.99,,2013-03-13 11:23:00,
2013-03-13 07:32:00,60.0,-99.9,30.12,NNE,12,26.0,28.0,-999,-99.99,,,-99.99,,2013-03-13 11:32:00,
2013-03-13 07:42:00,60.0,-99.9,30.12,North,9,25.0,28.0,-999,-99.99,,,-99.99,,2013-03-13 11:42:00,
2013-03-13 07:53:00,60.0,-99.9,30.12,NNE,13,25.0,29.0,-999,-99.99,,,-99.99,,2013-03-13 11:53:00,
2013-03-13 08:02:00,60.0,-99.9,30.13,North,11,25.0,29.0,-999,-99.99,,,-99.99,,2013-03-13 12:02:00,
2013-03-13 08:12:00,60.0,-99.9,30.14,NNE,13,26.0,31.0,-999,-99.99,,,-99.99,,2013-03-13 12:12:00,
2013-03-13 08:22:00,60.0,-99.9,30.14,North,9,27.0,30.0,-999,-99.99,,,-99.99,,2013-03-13 12:22:00,
2013-03-13 08:33:00,60.0,-99.9,30.14,NNE,15,26.0,30.0,-999,-99.99,,,-99.99,,2013-03-13 12:33:00,
2013-03-13 08:42:00,59.0,-99.9,30.14,NNE,12,26.0,29.0,-999,-99.99,,,-99.99,,2013-03-13 12:42:00,
2013-03-13 08:53:00,59.0,-99.9,30.14,NNE,16,25.0,29.0,-999,-99.99,,,-99.99,,2013-03-13 12:53:00,
2013-03-13 09:02:00,59.0,-99.9,30.15,NNE,20,24.0,32.0,-999,-99.99,,,-99.99,,2013-03-13 13:02:00,
2013-03-13 09:12:00,60.0,-99.9,30.15,North,11,27.0,31.0,-999,-99.99,,,-99.99,,2013-03-13 13:12:00,
2013-03-13 09:22:00,59.0,-99.9,30.16,NNE,25,22.0,30.0,-999,-99.99,,,-99.99,,2013-03-13 13:22:00,
2013-03-13 09:33:00,59.0,-99.9,30.16,NNE,18,23.0,28.0,-999,-99.99,,,-99.99,,2013-03-13 13:33:00,
2013-03-13 09:43:00,59.0,-99.9,30.16,NNE,24,24.0,30.0,-999,-99.99,,,-99.99,,2013-03-13 13:43:00,
2013-03-13 09:53:00,58.0,-99.9,30.17,NNE,23,25.0,32.0,-999,-99.99,,,-99.99,,2013-03-13 13:53:00,
2013-03-13 10:03:00,58.0,-99.9,30.18,NNE,20,24.0,31.0,-999,-99.99,,,-99.99,,2013-03-13 14:03:00,
2013-03-13 10:12:00,59.0,-99.9,30.17,NNE,20,22.0,27.0,-999,-99.99,,,-99.99,,2013-03-13 14:12:00,
2013-03-13 10:22:00,58.0,-99.9,30.18,NNE,20,27.0,31.0,-999,-99.99,,,-99.99,,2013-03-13 14:22:00,
2013-03-13 10:34:00,59.0,-99.9,30.18,NNE,16,24.0,29.0,-999,-99.99,,,-99.99,,2013-03-13 14:34:00,
2013-03-13 10:43:00,59.0,-99.9,30.19,NNE,24,24.0,31.0,-999,-99.99,,,-99.99,,2013-03-13 14:43:00,
2013-03-13 10:53:00,58.0,-99.9,30.19,NNE,15,26.0,30.0,-999,-99.99,,,-99.99,,2013-03-13 14:53:00,
2013-03-13 11:03:00,58.0,-99.9,30.19,NNE,17,25.0,29.0,-999,-99.99,,,-99.99,,2013-03-13 15:03:00,
2013-03-13 11:12:00,58.0,-99.9,30.19,NNE,18,24.0,29.0,-999,-99.99,,,-99.99,,2013-03-13 15:12:00,
2013-03-13 11:22:00,58.0,-99.9,30.19,NNE,12,25.0,30.0,-999,-99.99,,,-99.99,,2013-03-13 15:22:00,
2013-03-13 11:33:00,58.0,-99.9,30.20,North,11,26.0,29.0,-999,-99.99,,,-99.99,,2013-03-13 15:33:00,
2013-03-13 11:43:00,58.0,-99.9,30.20,NNE,15,26.0,29.0,-999,-99.99,,,-99.99,,2013-03-13 15:43:00,
2013-03-13 11:53:00,58.0,-99.9,30.20,NNE,14,23.0,28.0,-999,-99.99,,,-99.99,,2013-03-13 15:53:00,
2013-03-13 12:03:00,58.0,-99.9,30.20,North,10,22.0,26.0,-999,-99.99,,,-99.99,,2013-03-13 16:03:00,
2013-03-13 12:13:00,58.0,-99.9,30.20,North,11,23.0,27.0,-999,-99.99,,,-99.99,,2013-03-13 16:13:00,
2013-03-13 12:22:00,58.0,-99.9,30.20,North,10,21.0,26.0,-999,-99.99,,,-99.99,,2013-03-13 16:22:00,
2013-03-13 12:33:00,58.0,-99.9,30.21,NNE,14,21.0,25.0,-999,-99.99,,,-99.99,,2013-03-13 16:33:00,
2013-03-13 12:42:00,58.0,-99.9,30.21,North,7,20.0,26.0,-999,-99.99,,,-99.99,,2013-03-13 16:42:00,
2013-03-13 12:52:00,58.0,-99.9,30.21,North,3,24.0,26.0,-999,-99.99,,,-99.99,,2013-03-13 16:52:00,
2013-03-13 13:03:00,58.0,-99.9,30.21,North,4,20.0,25.0,-999,-99.99,,,-99.99,,2013-03-13 17:03:00,
2013-03-13 13:12:00,58.0,-99.9,30.21,North,3,21.0,24.0,-999,-99.99,,,-99.99,,2013-03-13 17:12:00,
2013-03-13 13:23:00,59.0,-99.9,30.21,North,3,20.0,21.0,-999,-99.99,,,-99.99,,2013-03-13 17:23:00,
2013-03-13 13:33:00,59.0,-99.9,30.21,North,359,21.0,24.0,-999,-99.99,,,-99.99,,2013-03-13 17:33:00,
2013-03-13 13:43:00,58.0,-99.9,30.21,North,360,22.0,24.0,-999,-99.99,,,-99.99,,2013-03-13 17:43:00,
2013-03-13 13:53:00,58.0,-99.9,30.21,North,354,21.0,22.0,-999,-99.99,,,-99.99,,2013-03-13 17:53:00,
2013-03-13 14:03:00,59.0,-99.9,30.21,North,354,18.0,23.0,-999,-99.99,,,-99.99,,2013-03-13 18:03:00,
2013-03-13 14:13:00,58.0,-99.9,30.20,North,355,19.0,23.0,-999,-99.99,,,-99.99,,2013-03-13 18:13:00,
2013-03-13 14:22:00,59.0,-99.9,30.19,North,357,20.0,22.0,-999,-99.99,,,-99.99,,2013-03-13 18:22:00,
2013-03-13 14:33:00,59.0,-99.9,30.19,North,-999,19.0,21.0,-999,-99.99,,,-99.99,,2013-03-13 18:33:00,
2013-03-13 14:43:00,59.0,-99.9,30.18,North,355,18.0,20.0,-999,-99.99,,,-99.99,,2013-03-13 18:43:00,
2013-03-13 14:52:00,59.0,-99.9,30.17,North,351,18.0,21.0,-999,-99.99,,,-99.99,,2013-03-13 18:52:00,
2013-03-13 15:03:00,59.0,-99.9,30.17,North,350,17.0,20.0,-999,-99.99,,,-99.99,,2013-03-13 19:03:00,
2013-03-13 15:12:00,59.0,-99.9,30.17,North,349,17.0,19.0,-999,-99.99,,,-99.99,,2013-03-13 19:12:00,
2013-03-13 15:22:00,59.0,-99.9,30.16,North,350,19.0,20.0,-999,-99.99,,,-99.99,,2013-03-13 19:22:00,
2013-03-13 15:32:00,60.0,-99.9,30.16,NNW,345,19.0,21.0,-999,-99.99,,,-99.99,,2013-03-13 19:32:00,
2013-03-13 15:43:00,59.0,-99.9,30.16,NNW,345,19.0,21.0,-999,-99.99,,,-99.99,,2013-03-13 19:43:00,
2013-03-13 15:53:00,59.0,-99.9,30.15,NNW,341,18.0,20.0,-999,-99.99,,,-99.99,,2013-03-13 19:53:00,
2013-03-13 16:02:00,59.0,-99.9,30.15,NNW,340,16.0,20.0,-999,-99.99,,,-99.99,,2013-03-13 20:02:00,
2013-03-13 16:13:00,59.0,-99.9,30.15,NNW,338,19.0,20.0,-999,-99.99,,,-99.99,,2013-03-13 20:13:00,
2013-03-13 16:23:00,60.0,-99.9,30.15,NNW,338,17.0,20.0,-999,-99.99,,,-99.99,,2013-03-13 20:23:00,
2013-03-13 16:33:00,60.0,-99.9,30.14,NNW,334,18.0,20.0,-999,-99.99,,,-99.99,,2013-03-13 20:33:00,
2013-03-13 16:42:00,60.0,-99.9,30.14,NNW,333,16.0,20.0,-999,-99.99,,,-99.99,,2013-03-13 20:42:00,
2013-03-13 16:52:00,60.0,-99.9,30.14,NNW,334,17.0,21.0,-999,-99.99,,,-99.99,,2013-03-13 20:52:00,
2013-03-13 17:02:00,60.0,-99.9,30.14,NNW,337,19.0,21.0,-999,-99.99,,,-99.99,,2013-03-13 21:02:00,
2013-03-13 17:12:00,60.0,-99.9,30.14,NNW,332,18.0,20.0,-999,-99.99,,,-99.99,,2013-03-13 21:12:00,
2013-03-13 17:22:00,61.0,-99.9,30.13,NW,326,14.0,18.0,-999,-99.99,,,-99.99,,2013-03-13 21:22:00,
2013-03-13 17:34:00,61.0,-99.9,30.13,NNW,329,15.0,19.0,-999,-99.99,,,-99.99,,2013-03-13 21:34:00,
2013-03-13 17:42:00,61.0,-99.9,30.13,NNW,329,16.0,19.0,-999,-99.99,,,-99.99,,2013-03-13 21:42:00,
2013-03-13 17:52:00,61.0,-99.9,30.12,NNW,327,17.0,21.0,-999,-99.99,,,-99.99,,2013-03-13 21:52:00,
2013-03-13 18:02:00,61.0,-99.9,30.12,NW,326,17.0,23.0,-999,-99.99,,,-99.99,,2013-03-13 22:02:00,
2013-03-13 18:12:00,61.0,-99.9,30.13,NNW,329,19.0,21.0,-999,-99.99,,,-99.99,,2013-03-13 22:12:00,
2013-03-13 18:22:00,61.0,-99.9,30.12,NNW,331,18.0,21.0,-999,-99.99,,,-99.99,,2013-03-13 22:22:00,
2013-03-13 18:33:00,61.0,-99.9,30.12,NNW,328,17.0,21.0,-999,-99.99,,,-99.99,,2013-03-13 22:33:00,
2013-03-13 18:42:00,61.0,-99.9,30.12,NNW,328,17.0,21.0,-999,-99.99,,,-99.99,,2013-03-13 22:42:00,
2013-03-13 18:52:00,61.0,-99.9,30.12,NW,320,15.0,19.0,-999,-99.99,,,-99.99,,2013-03-13 22:52:00,
2013-03-13 19:02:00,61.0,-99.9,30.12,NW,320,15.0,19.0,-999,-99.99,,,-99.99,,2013-03-13 23:02:00,
2013-03-13 19:12:00,61.0,-99.9,30.12,NW,321,15.0,21.0,-999,-99.99,,,-99.99,,2013-03-13 23:12:00,
2013-03-13 19:22:00,61.0,-99.9,30.13,NW,323,16.0,21.0,-999,-99.99,,,-99.99,,2013-03-13 23:22:00,
2013-03-13 19:32:00,61.0,-99.9,30.13,NNW,327,16.0,20.0,-999,-99.99,,,-99.99,,2013-03-13 23:32:00,
2013-03-13 19:43:00,61.0,-99.9,30.13,NNW,334,21.0,24.0,-999,-99.99,,,-99.99,,2013-03-13 23:43:00,
2013-03-13 19:52:00,61.0,-99.9,30.13,NNW,330,19.0,23.0,-999,-99.99,,,-99.99,,2013-03-13 23:52:00,
2013-03-13 20:02:00,61.0,-99.9,30.13,NW,326,18.0,22.0,-999,-99.99,,,-99.99,,2013-03-14 00:02:00,
2013-03-13 20:13:00,61.0,-99.9,30.13,NW,320,14.0,21.0,-999,-99.99,,,-99.99,,2013-03-14 00:13:00,
2013-03-13 20:22:00,61.0,-99.9,30.13,NW,323,16.0,21.0,-999,-99.99,,,-99.99,,2013-03-14 00:22:00,
2013-03-13 20:33:00,62.0,-99.9,30.14,NNW,328,17.0,23.0,-999,-99.99,,,-99.99,,2013-03-14 00:33:00,
2013-03-13 20:43:00,62.0,-99.9,30.14,NNW,328,19.0,24.0,-999,-99.99,,,-99.99,,2013-03-14 00:43:00,
2013-03-13 20:53:00,62.0,-99.9,30.15,NW,325,19.0,23.0,-999,-99.99,,,-99.99,,2013-03-14 00:53:00,
2013-03-13 21:03:00,62.0,-99.9,30.15,NW,321,18.0,22.0,-999,-99.99,,,-99.99,,2013-03-14 01:03:00,
2013-03-13 21:12:00,61.0,-99.9,30.15,NW,317,19.0,23.0,-999,-99.99,,,-99.99,,2013-03-14 01:12:00,
2013-03-13 21:23:00,61.0,-99.9,30.15,NW,319,19.0,26.0,-999,-99.99,,,-99.99,,2013-03-14 01:23:00,
2013-03-13 21:33:00,61.0,-99.9,30.15,NW,318,20.0,26.0,-999,-99.99,,,-99.99,,2013-03-14 01:33:00,
2013-03-13 21:42:00,61.0,-99.9,30.16,NW,321,16.0,22.0,-999,-99.99,,,-99.99,,2013-03-14 01:42:00,
2013-03-13 21:53:00,61.0,-99.9,30.16,NW,321,15.0,23.0,-999,-99.99,,,-99.99,,2013-03-14 01:53:00,
2013-03-13 22:02:00,61.0,-99.9,30.16,NW,320,16.0,24.0,-999,-99.99,,,-99.99,,2013-03-14 02:02:00,
2013-03-13 22:12:00,61.0,-99.9,30.17,NW,321,17.0,23.0,-999,-99.99,,,-99.99,,2013-03-14 02:12:00,
2013-03-13 22:22:00,61.0,-99.9,30.17,NW,315,18.0,23.0,-999,-99.99,,,-99.99,,2013-03-14 02:22:00,
2013-03-13 22:33:00,61.0,-99.9,30.18,NW,316,18.0,23.0,-999,-99.99,,,-99.99,,2013-03-14 02:33:00,
2013-03-13 22:42:00,61.0,-99.9,30.18,NW,316,18.0,23.0,-999,-99.99,,,-99.99,,2013-03-14 02:42:00,
2013-03-13 22:52:00,61.0,-99.9,30.18,NW,316,18.0,23.0,-999,-99.99,,,-99.99,,2013-03-14 02:52:00,
2013-03-13 23:02:00,61.0,-99.9,30.19,NW,320,18.0,22.0,-999,-99.99,,,-99.99,,2013-03-14 03:02:00,
2013-03-13 23:12:00,61.0,-99.9,30.19,NW,318,20.0,24.0,-999,-99.99,,,-99.99,,2013-03-14 03:12:00,
2013-03-13 23:23:00,61.0,-99.9,30.19,NW,314,19.0,24.0,-999,-99.99,,,-99.99,,2013-03-14 03:23:00,
2013-03-13 23:33:00,61.0,-99.9,30.19,NW,316,21.0,24.0,-999,-99.99,,,-99.99,,2013-03-14 03:33:00,
2013-03-13 23:42:00,61.0,-99.9,30.19,NW,320,15.0,23.0,-999,-99.99,,,-99.99,,2013-03-14 03:42:00,
2013-03-13 23:53:00,61.0,-99.9,30.19,NW,322,13.0,20.0,-999,-99.99,,,-99.99,,2013-03-14 03:53:00,